Weather History for RKTU - March, 2013

Change the Weather History Date:

Wednesday, March 6, 2013

  Actual Average Record
Temperature  
Mean Temperature 42 °F -  
Max Temperature 60 °F 55 °F - ()
Min Temperature 24 °F 31 °F - ()
Degree Days  
Heating Degree Days 23    
Moisture  
Dew Point 25 °F    
Average Humidity 60    
Maximum Humidity 93    
Minimum Humidity 21    
Precipitation  
Precipitation 0.00 in - - ()
Sea Level Pressure  
Sea Level Pressure 30.16 in    
Wind  
Wind Speed 3 mph ()    
Max Wind Speed 10 mph    
Max Gust Speed -    
Visibility 4.9 miles    
Events      
T = Trace of Precipitation, MM = Missing Value Source: Averaged Metar Reports

Daily Weather History Graph

Daily Weather History Graph

Search for Another Location

Airport or City:

Trip Planner

Search our weather history database for the weather conditions in past years. The results will help you decide how hot, cold, wet, or windy it might be!

Date:

Astronomy

Mar. 06, 2013 Rise Set
Actual Time 6:54 AM KST 6:28 PM KST
Civil Twilight 6:28 AM KST 6:54 PM KST
Nautical Twilight 5:58 AM KST 7:24 PM KST
Astronomical Twilight 5:28 AM KST 7:54 PM KST
Moon 2:23 AM KST (3/6) 12:39 PM KST (3/6)
Length of Visible Light 12h 26m
Length of Day
11h 34m
Last Quarter, 36% of the Moon is Illuminated
Mar 6
Last Quarter
Mar 12
New
Mar 20
First Quarter
Mar 27
Full
Apr 3
Last Quarter

Hourly Weather History & Observations

Time (KST) Temp. Windchill Dew Point Humidity Pressure Visibility Wind Dir Wind Speed Gust Speed Precip Events Conditions
12:00 AM 30.2 °F - 24.8 °F 80% 30.21 in 5.0 mi SE 1.2 mph - N/A   Unknown
1:00 AM 30.2 °F - 24.8 °F 80% 30.24 in 5.0 mi SE 2.3 mph - N/A   Unknown
2:00 AM 24.8 °F - 21.2 °F 86% 30.25 in 5.0 mi ENE 2.3 mph - N/A   Unknown
3:00 AM 28.4 °F 24.6 °F 19.4 °F 69% 30.24 in 5.0 mi ESE 3.5 mph - N/A   Clear
4:00 AM 24.8 °F - 23.0 °F 93% 30.22 in 5.0 mi East 2.3 mph - N/A   Clear
5:00 AM 24.8 °F 20.5 °F 21.2 °F 86% 30.21 in 5.0 mi East 3.5 mph - N/A   Clear
6:00 AM 26.6 °F 22.6 °F 21.2 °F 80% 30.21 in 5.0 mi ESE 3.5 mph - N/A   Unknown
7:00 AM 24.8 °F 20.5 °F 23.0 °F 93% 30.21 in 3.7 mi ENE 3.5 mph - N/A   Unknown
8:00 AM 26.6 °F 22.6 °F 24.8 °F 93% 30.24 in 5.0 mi East 3.5 mph - N/A   Unknown
9:00 AM 32.0 °F - 26.6 °F 80% 30.24 in 5.6 mi NE 2.3 mph - N/A   Unknown
10:00 AM 39.2 °F - 24.8 °F 56% 30.24 in 5.6 mi SSW 1.2 mph - N/A   Unknown
11:00 AM 41.0 °F 39.0 °F 24.8 °F 53% 30.21 in - NNW 3.5 mph - N/A   Clear
12:00 PM 48.2 °F - 24.8 °F 40% 30.21 in - West 2.3 mph - N/A   Clear
1:00 PM 53.6 °F - 14.0 °F 21% 30.18 in - WNW 3.5 mph - N/A   Clear
2:00 PM 55.4 °F - 24.8 °F 31% 30.15 in 6.2 mi WSW 6.9 mph - N/A   Partly Cloudy
3:00 PM 59.0 °F - 23.0 °F 25% 30.12 in 6.2 mi WSW 5.8 mph - N/A   Partly Cloudy
4:00 PM 60.8 °F - 24.8 °F 25% 30.09 in 6.2 mi SW 9.2 mph - N/A   Partly Cloudy
5:00 PM 59.0 °F - 28.4 °F 31% 30.06 in 6.2 mi SW 10.4 mph - N/A   Partly Cloudy
6:00 PM 57.2 °F - 28.4 °F 33% 30.04 in 5.0 mi SSW 4.6 mph - N/A   Scattered Clouds
7:00 PM 55.4 °F - 28.4 °F 36% 30.04 in 3.7 mi SSW 3.5 mph - N/A   Unknown
8:00 PM 50.0 °F - 30.2 °F 47% 30.06 in 3.7 mi ENE 3.5 mph - N/A   Unknown
9:00 PM 42.8 °F - 30.2 °F 61% 30.04 in 3.7 mi South 1.2 mph - N/A   Unknown
10:00 PM 42.8 °F - 33.8 °F 70% 30.04 in 3.7 mi East 1.2 mph - N/A   Unknown
11:00 PM 39.2 °F - 32.0 °F 75% 30.01 in 3.7 mi ENE 2.3 mph - N/A   Unknown